Location: Newark
(45.7425°N, 0.7617°W)
Time: 20:51:28
(UTC+00:00)

N. Korean satellite - Pass Details

Date: 31 January 2020
Orbit: 456 x 505 km, 97.2° (Epoch: 22 February)

Event Time Altitude Azimuth Distance (km) Brightness Sun altitude
Rises 04:43:31 0° 33° (NNE) 2,564 10.7 -28.6°
Reaches altitude 10° 04:46:44 10° 66° (ENE) 1,688 10.1 -28.0°
Maximum altitude 04:48:14 12° 90° (E) 1,561 10.0 -27.7°
Drops below altitude 10° 04:49:44 10° 114° (ESE) 1,692 10.1 -27.5°
Sets 04:52:58 0° 146° (SSE) 2,578 10.7 -26.9°
